Location: Complexul Astronomic Baia Mare
(47.6577°N, 23.5639°E)
Time: 13:24:37
(UTC+03:00)

ISS - Pass Details

Date: 03 June 2017
Orbit: 401 x 408 km, 51.6° (Epoch: 23 June)

Event Time Altitude Azimuth Distance (km) Brightness Sun altitude
Rises 00:42:21 0° 292° (WNW) 2,339 0.5 -19.4°
Reaches altitude 10° 00:44:30 10° 285° (WNW) 1,474 -0.7 -19.5°
Enters shadow 00:46:36 31° 259° (W) 751 -2.6 -19.5°
